7 * 24
多渠道服务支持
STARLINK-36716是美国SpaceX公司星链(Starlink)星座组网任务中的卫星,于2026年2月7日发射入轨。作为星链计划的组成部分,它运行在近地轨道,旨在为全球网络覆盖不足地区提供低延迟、高速的互联网服务,助力实现全球全域的宽带互联。星链星座通过批量发射组网持续拓展规模,该卫星的成功入轨进一步扩充了在轨星链卫星的整体规模,推动星座部署进程,不过也引发了天文观测等领域对空间环境影响的讨论。
美国
(US)
| 数据来源 | 国际轨道数据 |
| 星历时间: | 2026-03-14T02:12:37+0800 12小时前 查看轨道信息 |
| 半长轴: | 6721.69km |
| 偏心率: | 0.0001941 |
| 轨道倾角: | 97.285° |
| 近地点辐角 | 60.061° |
| 升交点赤经 | 184.587° |
| 平近点角 | 300.085° |
| 近地点: | 342.248km |
| 远地点: | 344.858km |
| 周期: | 91.407分钟 |
| 每日圈数: | 15.753793 |